EW9327 Weather Reports


time (UTC)temp
F
wind
direction
speed
knots
gust
knots
rain 1hr
in
rain 24hr
in
rain mn
in
humidity
%
barometer
mb
20210920050624 60 248 0.0 0.0 0.00 0.00 0.00 88 1000.2
20210920050124 60 247 0.0 0.0 0.00 0.00 0.00 88 1000.2
20210920045625 60 247 0.0 0.0 0.00 0.00 0.00 88 1000.2
20210920045124 60 248 0.0 0.0 0.00 0.00 0.00 88 1000.2
20210920044625 60 248 0.0 0.0 0.00 0.00 0.00 88 1000.3
20210920044122 60 247 0.0 0.0 0.00 0.00 0.00 87 1000.2
20210920043623 61 247 0.0 0.0 0.00 0.00 0.00 88 1000.3
20210920043122 61 0 0.0 0.0 0.00 0.00 0.00 88 1000.3
20210920042623 61 246 0.0 0.0 0.00 0.00 0.00 87 1000.2
20210920042122 61 247 0.0 0.0 0.00 0.00 0.00 87 1000.3
20210920041623 61 247 0.0 0.0 0.00 0.00 0.00 87 1000.3
20210920041123 61 0 0.0 0.0 0.00 0.00 0.00 87 1000.3
20210920040622 62 0 0.0 0.0 0.00 0.00 0.00 87 1000.3
20210920040122 62 0 0.0 0.0 0.00 0.00 0.00 87 1000.3
20210920035622 62 246 0.0 0.0 0.00 0.00 0.00 87 1000.2
20210920035122 62 246 0.0 0.0 0.00 0.00 0.00 87 1000.2
20210920034622 62 247 0.0 0.0 0.00 0.00 0.00 86 1000.2
20210920034123 63 0 0.0 0.0 0.00 0.00 0.00 86 1000.2
20210920033622 63 247 0.0 0.0 0.00 0.00 0.00 86 1000.2
20210920033121 63 0 0.0 0.0 0.00 0.00 0.00 86 1000.2
20210920032622 63 247 0.0 0.0 0.00 0.00 0.00 86 1000.2
20210920032122 63 0 0.0 0.0 0.00 0.00 0.00 86 1000.1
20210920031622 64 0 0.0 0.0 0.00 0.00 0.00 85 1000.1
20210920031123 64 0 0.0 0.0 0.00 0.00 0.00 85 1000.1
20210920030622 64 0 0.0 0.0 0.00 0.00 0.00 85 1000.1
20210920030121 64 0 0.0 0.0 0.00 0.00 0.00 85 1000.1
20210920025623 64 0 0.0 0.0 0.00 0.00 0.00 85 1000.0
20210920025122 64 0 0.0 0.0 0.00 0.00 0.00 85 999.9
20210920024620 64 0 0.0 0.0 0.00 0.00 0.00 84 1000.0
20210920024120 64 0 0.0 0.0 0.00 0.00 0.00 84 1000.1
20210920023619 65 0 0.0 0.0 0.00 0.00 0.00 84 999.9
20210920023119 65 0 0.0 0.0 0.00 0.00 0.00 84 999.9
20210920022619 65 0 0.0 0.0 0.00 0.00 0.00 84 999.7
20210920022118 65 0 0.0 0.0 0.00 0.00 0.00 83 999.6
20210920021618 65 0 0.0 0.0 0.00 0.00 0.00 83 999.6
20210920021120 65 0 0.0 0.0 0.00 0.00 0.00 83 999.6
20210920020620 65 0 0.0 0.0 0.00 0.00 0.00 82 999.6
20210920020118 65 0 0.0 0.0 0.00 0.00 0.00 82 999.7
20210920015614 65 0 0.0 0.0 0.00 0.00 0.00 82 999.6
20210920015115 66 0 0.0 0.0 0.00 0.00 0.00 82 999.6
20210920014615 66 0 0.0 0.0 0.00 0.00 0.00 81 999.6
20210920014116 66 0 0.0 0.0 0.00 0.00 0.00 81 999.6
20210920013614 66 0 0.0 0.0 0.00 0.00 0.00 81 999.6
20210920013114 66 0 0.0 0.0 0.00 0.00 0.00 80 999.7
20210920012615 67 0 0.0 0.0 0.00 0.00 0.00 80 999.8
20210920012114 67 0 0.0 0.0 0.00 0.00 0.00 80 999.7
20210920011615 67 0 0.0 0.0 0.00 0.00 0.00 79 999.7
20210920011117 67 0 0.0 0.0 0.00 0.00 0.00 79 999.7
20210920010614 68 0 0.0 0.0 0.00 0.00 0.00 78 999.8
20210920010114 68 0 0.0 0.0 0.00 0.00 0.00 77 999.8
20210920005615 69 0 0.0 0.0 0.00 0.00 0.00 77 999.8
20210920005114 69 266 0.0 0.0 0.00 0.00 0.00 76 999.8
20210920004615 69 0 0.0 0.9 0.00 0.00 0.00 75 999.8
20210920004115 70 241 0.0 0.9 0.00 0.00 0.00 74 999.7
20210920003614 70 238 0.0 0.0 0.00 0.00 0.00 75 999.7
20210920003114 70 229 0.0 0.0 0.00 0.00 0.00 74 999.7
20210920002613 71 284 0.0 0.0 0.00 0.00 0.00 74 999.7
20210920002115 70 205 0.0 0.0 0.00 0.00 0.00 74 999.7
20210920001614 71 215 0.0 0.0 0.00 0.00 0.00 74 999.7
20210920001114 71 256 0.0 0.0 0.00 0.00 0.00 74 999.8
20210920000615 71 256 0.0 0.0 0.00 0.00 0.00 74 999.8
20210920000114 71 307 0.0 0.0 0.00 0.00 0.00 74 999.8
20210919235616 71 238 0.0 0.0 0.00 0.00 0.00 74 999.8
20210919235115 71 299 0.0 0.0 0.00 0.00 0.00 74 999.9
20210919234614 70 217 0.0 0.0 0.00 0.00 0.00 74 999.9
20210919234114 71 179 0.0 0.0 0.00 0.00 0.00 74 999.8
20210919233614 70 244 0.0 0.0 0.00 0.00 0.00 74 1000.0
20210919233112 70 220 0.0 0.0 0.00 0.00 0.00 74 1000.0
20210919232611 70 250 0.0 0.0 0.00 0.00 0.00 74 1000.0
20210919232112 71 238 0.0 0.0 0.00 0.00 0.00 74 999.9
20210919231612 71 288 0.0 0.0 0.00 0.00 0.00 74 1000.0
20210919231112 71 237 0.0 0.0 0.00 0.00 0.00 74 1000.0
20210919230613 71 254 0.0 0.0 0.00 0.00 0.00 73 1000.1
20210919230112 71 236 0.0 0.0 0.00 0.00 0.00 73 999.9
20210919225612 71 238 0.0 0.0 0.00 0.00 0.00 73 1000.0
20210919225111 71 189 0.0 0.0 0.00 0.00 0.00 73 1000.0
20210919224611 71 184 0.0 0.0 0.00 0.00 0.00 72 1000.0
20210919224110 72 123 0.0 0.0 0.00 0.00 0.00 71 1000.2
20210919223610 72 240 0.0 0.0 0.00 0.00 0.00 72 1000.3
20210919223110 72 227 0.0 0.9 0.00 0.00 0.00 73 1000.4
20210919222611 72 217 0.0 0.9 0.00 0.00 0.00 73 1000.4
20210919222110 72 217 0.0 0.0 0.00 0.00 0.00 72 1000.5
20210919221613 72 247 0.0 0.0 0.00 0.00 0.00 73 1000.4
20210919221110 72 246 0.0 0.0 0.00 0.00 0.00 72 1000.5
20210919220609 72 230 0.0 0.0 0.00 0.00 0.00 72 1000.5
20210919220109 72 255 0.0 0.0 0.00 0.00 0.00 72 1000.5
20210919215608 72 233 0.0 0.0 0.00 0.00 0.00 72 1000.6
20210919215108 73 180 0.0 0.0 0.00 0.00 0.00 72 1000.7
20210919214607 73 225 0.0 0.0 0.00 0.00 0.00 73 1000.7
20210919214108 73 117 0.0 0.0 0.00 0.00 0.00 72 1000.8
20210919213609 73 259 0.0 0.0 0.00 0.00 0.00 72 1000.8
20210919213109 73 246 0.0 0.9 0.00 0.00 0.00 73 1000.9
20210919212608 72 242 0.0 0.9 0.00 0.00 0.00 73 1000.9
20210919212107 72 233 0.0 0.0 0.00 0.00 0.00 73 1000.9
20210919211606 72 121 0.0 0.0 0.00 0.00 0.00 72 1001.0
20210919211105 72 281 0.0 0.0 0.00 0.00 0.00 73 1001.0
20210919210606 72 224 0.0 0.0 0.00 0.00 0.00 73 1001.1
20210919210108 72 246 0.0 0.0 0.00 0.00 0.00 73 1001.3
20210919205606 71 137 0.0 0.0 0.00 0.00 0.00 74 1001.5
20210919205105 71 104 0.0 0.0 0.00 0.00 0.00 75 1001.5
20210919204604 71 167 0.0 0.0 0.00 0.00 0.00 75 1001.6
20210919204104 71 196 0.0 0.0 0.00 0.00 0.00 74 1001.6
20210919203604 71 131 0.0 0.9 0.00 0.00 0.00 75 1001.6
20210919203104 71 170 0.0 0.9 0.00 0.00 0.00 74 1001.9
20210919202605 71 251 0.0 0.0 0.00 0.00 0.00 74 1001.9
20210919202104 71 188 0.0 0.9 0.00 0.00 0.00 74 1001.9
20210919201606 71 240 0.0 0.9 0.00 0.00 0.00 73 1002.1
20210919201103 71 251 0.0 0.9 0.00 0.00 0.00 73 1002.1
20210919200602 71 177 0.0 0.9 0.00 0.00 0.00 74 1002.2
20210919200102 71 161 0.0 0.9 0.00 0.00 0.00 74 1002.1
20210919195601 71 247 0.0 0.9 0.00 0.00 0.00 75 1002.2
20210919195103 70 154 0.0 0.9 0.00 0.00 0.00 75 1002.3
20210919194600 70 220 0.0 0.9 0.00 0.00 0.00 74 1002.4
20210919194058 70 283 0.0 0.9 0.00 0.00 0.00 75 1002.4
20210919193559 70 240 0.0 0.9 0.00 0.00 0.00 74 1002.4
20210919193059 70 249 0.0 0.9 0.00 0.00 0.00 74 1002.4
20210919192558 70 198 0.0 0.0 0.00 0.00 0.00 75 1002.4
20210919192058 70 207 0.0 0.0 0.00 0.00 0.00 75 1002.4
20210919191600 70 291 0.0 0.0 0.00 0.00 0.00 74 1002.5
20210919191058 70 271 0.0 0.0 0.00 0.00 0.00 74 1002.4
20210919190558 70 233 0.0 0.0 0.00 0.00 0.00 75 1002.4
20210919190058 70 189 0.0 0.0 0.00 0.00 0.00 76 1002.5
20210919185558 69 197 0.0 0.0 0.00 0.00 0.00 75 1002.5
20210919185058 69 302 0.0 0.0 0.00 0.00 0.00 76 1002.6
20210919184559 69 232 0.0 0.0 0.00 0.00 0.00 75 1002.6
20210919184059 69 142 0.0 0.0 0.00 0.00 0.00 76 1002.7
20210919183600 69 144 0.0 0.0 0.00 0.00 0.00 76 1002.9
20210919183057 69 144 0.0 0.0 0.00 0.00 0.00 76 1002.9
20210919182558 69 259 0.0 0.0 0.00 0.00 0.00 76 1003.0
20210919182059 69 294 0.0 0.0 0.00 0.00 0.00 77 1002.9
20210919181556 68 187 0.0 0.0 0.00 0.00 0.00 78 1003.0
20210919181056 68 151 0.0 0.0 0.00 0.00 0.00 78 1003.1
20210919180554 67 142 0.0 0.0 0.00 0.00 0.00 80 1003.2
20210919180056 67 239 0.0 0.0 0.00 0.00 0.00 80 1003.3
20210919175551 67 153 0.0 0.0 0.00 0.00 0.00 81 1003.3
20210919175052 66 243 0.0 0.0 0.00 0.00 0.00 81 1003.4
20210919174553 66 244 0.0 0.0 0.00 0.00 0.00 81 1003.4
20210919174053 66 250 0.0 0.0 0.00 0.00 0.00 81 1003.4
20210919173551 66 36 0.0 0.0 0.00 0.00 0.00 82 1003.4
20210919173051 65 42 0.0 0.0 0.00 0.00 0.00 83 1003.5
20210919172553 65 0 0.0 0.0 0.00 0.00 0.00 84 1003.5
20210919172053 64 41 0.0 0.0 0.00 0.00 0.00 84 1003.5
20210919171551 64 40 0.0 0.0 0.00 0.00 0.00 85 1003.6
20210919171053 64 42 0.0 0.0 0.00 0.00 0.00 85 1003.7
20210919170552 64 34 0.0 0.0 0.00 0.00 0.00 86 1003.8
20210919170052 64 30 0.0 0.0 0.00 0.00 0.00 87 1003.9
20210919165551 63 24 0.0 0.0 0.00 0.00 0.00 87 1003.9
20210919165053 63 109 0.0 0.0 0.00 0.00 0.00 88 1003.8
20210919164553 63 113 0.0 0.0 0.00 0.00 0.00 89 1003.8
20210919164051 62 113 0.0 0.0 0.00 0.00 0.00 90 1003.8
20210919163552 62 113 0.0 0.0 0.00 0.00 0.00 90 1003.8
20210919163052 62 113 0.0 0.0 0.00 0.00 0.00 91 1003.8
20210919162552 61 113 0.0 0.0 0.00 0.00 0.00 92 1003.8
20210919162051 61 113 0.0 0.0 0.00 0.00 0.00 92 1003.8
20210919161553 61 113 0.0 0.0 0.00 0.00 0.00 93 1003.8
20210919161052 61 113 0.0 0.0 0.00 0.00 0.00 93 1003.8
20210919160553 60 113 0.0 0.0 0.00 0.00 0.00 93 1003.7
20210919160051 60 114 0.0 0.0 0.00 0.00 0.00 93 1003.5
20210919155551 60 114 0.0 0.0 0.00 0.00 0.00 93 1003.5
20210919155052 60 114 0.0 0.0 0.00 0.00 0.00 93 1003.6
20210919154552 60 114 0.0 0.0 0.00 0.00 0.00 93 1003.5
20210919154053 59 78 0.0 0.0 0.00 0.00 0.00 94 1003.4
20210919153552 59 68 0.0 0.0 0.00 0.00 0.00 94 1003.4
20210919153053 59 68 0.0 0.0 0.00 0.00 0.00 95 1003.4
20210919152551 59 68 0.0 0.0 0.00 0.00 0.00 94 1003.3
20210919152052 58 68 0.0 0.0 0.00 0.00 0.00 95 1003.3
20210919151550 58 68 0.0 0.0 0.00 0.00 0.00 95 1003.2
20210919151049 58 71 0.0 0.0 0.00 0.00 0.00 95 1003.2
20210919150550 58 71 0.0 0.0 0.00 0.00 0.00 95 1003.1
20210919150051 57 71 0.0 0.0 0.00 0.00 0.00 96 1003.1
20210919145548 56 74 0.0 0.0 0.00 0.00 0.00 96 1003.1
20210919145047 56 0 0.0 0.0 0.00 0.00 0.00 95 1003.1
20210919144548 55 0 0.0 0.0 0.00 0.00 0.00 94 1003.1
20210919144048 55 0 0.0 0.0 0.00 0.00 0.00 94 1003.2
20210919143547 55 0 0.0 0.0 0.00 0.00 0.00 94 1003.2
20210919143046 54 72 0.0 0.0 0.00 0.00 0.00 94 1003.2
20210919142547 54 72 0.0 0.0 0.00 0.00 0.00 94 1003.1
20210919142045 54 71 0.0 0.0 0.00 0.00 0.00 93 1003.1
20210919141548 54 71 0.0 0.0 0.00 0.00 0.00 93 1003.2
20210919141046 54 71 0.0 0.0 0.00 0.00 0.00 93 1003.2
20210919140544 54 71 0.0 0.0 0.00 0.00 0.00 93 1003.0
20210919140044 53 71 0.0 0.0 0.00 0.00 0.00 93 1003.0
20210919135544 53 71 0.0 0.0 0.00 0.00 0.00 93 1003.0
20210919135046 53 71 0.0 0.0 0.00 0.00 0.00 93 1002.9
20210919134544 53 71 0.0 0.0 0.00 0.00 0.00 93 1002.9
20210919134043 53 71 0.0 0.0 0.00 0.00 0.00 93 1002.9
20210919133541 53 71 0.0 0.0 0.00 0.00 0.00 92 1003.0
20210919133042 53 71 0.0 0.9 0.00 0.00 0.00 92 1002.9
20210919132542 53 72 0.0 0.9 0.00 0.00 0.00 92 1002.9
20210919132043 53 66 0.0 0.0 0.00 0.00 0.00 92 1002.9
20210919131541 53 66 0.0 0.0 0.00 0.00 0.00 92 1002.9
20210919131039 53 66 0.0 0.0 0.00 0.00 0.00 92 1002.8
20210919130535 53 66 0.0 0.0 0.00 0.00 0.00 93 1002.7
20210919130036 53 66 0.0 0.0 0.00 0.00 0.00 92 1002.8
20210919125533 53 66 0.0 0.0 0.00 0.00 0.00 93 1002.7
20210919125033 53 66 0.0 0.0 0.00 0.00 0.00 93 1002.7
20210919124533 53 66 0.0 0.0 0.00 0.00 0.00 92 1002.6
20210919124034 53 66 0.0 0.0 0.00 0.00 0.00 92 1002.6
20210919123533 53 66 0.0 0.0 0.00 0.00 0.00 92 1002.6
20210919123033 53 66 0.0 0.0 0.00 0.00 0.00 92 1002.5
20210919122535 53 66 0.0 0.0 0.00 0.00 0.00 92 1002.4
20210919122035 53 66 0.0 0.0 0.00 0.00 0.00 92 1002.4
20210919121533 53 66 0.0 0.0 0.00 0.00 0.00 92 1002.4
20210919121032 53 66 0.0 0.0 0.00 0.00 0.00 92 1002.3
20210919120533 53 66 0.0 0.0 0.00 0.00 0.00 92 1002.2
20210919120032 53 66 0.0 0.0 0.00 0.00 0.00 92 1002.3
20210919115533 53 66 0.0 0.0 0.00 0.00 0.00 92 1002.2
20210919115031 54 66 0.0 0.0 0.00 0.00 0.00 92 1002.2
20210919114531 54 66 0.0 0.0 0.00 0.00 0.00 92 1002.1
20210919114031 54 66 0.0 0.0 0.00 0.00 0.00 92 1002.1
20210919113531 54 66 0.0 0.0 0.00 0.00 0.00 92 1002.1
20210919113032 54 66 0.0 0.0 0.00 0.00 0.00 92 1002.1
20210919112531 54 66 0.0 0.0 0.00 0.00 0.00 92 1002.1
20210919112028 54 66 0.0 0.0 0.00 0.00 0.00 92 1002.2
20210919111530 54 66 0.0 0.0 0.00 0.00 0.00 92 1002.2
20210919111029 54 66 0.0 0.0 0.00 0.00 0.00 92 1002.2
20210919110529 54 66 0.0 0.0 0.00 0.00 0.00 92 1002.2
20210919110030 54 66 0.0 0.0 0.00 0.00 0.00 92 1002.2
20210919105529 54 66 0.0 0.0 0.00 0.00 0.00 92 1002.3
20210919105029 54 66 0.0 0.0 0.00 0.00 0.00 92 1002.2
20210919104529 54 66 0.0 0.0 0.00 0.00 0.00 91 1002.3
20210919104029 54 66 0.0 0.0 0.00 0.00 0.00 91 1002.3
20210919103527 54 66 0.0 0.0 0.00 0.00 0.00 91 1002.4
20210919103027 54 65 0.0 0.0 0.00 0.00 0.00 92 1002.4
20210919102531 54 46 0.0 0.0 0.00 0.00 0.00 91 1002.4
20210919102027 54 24 0.0 0.0 0.00 0.00 0.00 91 1002.5
20210919101526 54 24 0.0 0.0 0.00 0.00 0.00 91 1002.5
20210919101027 54 24 0.0 0.0 0.00 0.00 0.00 91 1002.6
20210919100527 54 24 0.0 0.0 0.00 0.00 0.00 91 1002.5
20210919100027 54 24 0.0 0.0 0.00 0.00 0.00 91 1002.6
20210919095526 54 24 0.0 0.0 0.00 0.00 0.00 91 1002.6
20210919095028 54 24 0.0 0.0 0.00 0.00 0.00 91 1002.7
20210919094524 54 24 0.0 0.0 0.00 0.00 0.00 91 1002.7
20210919094025 54 24 0.0 0.0 0.00 0.00 0.00 91 1002.8
20210919093523 54 24 0.0 0.0 0.00 0.00 0.00 91 1002.7
20210919093023 54 24 0.0 0.0 0.00 0.00 0.00 91 1002.7
20210919092523 54 24 0.0 0.0 0.00 0.00 0.00 91 1002.8
20210919092023 54 24 0.0 0.0 0.00 0.00 0.00 91 1002.8
20210919091523 54 24 0.0 0.0 0.00 0.00 0.00 91 1002.9
20210919091027 55 290 0.0 0.0 0.00 0.00 0.00 91 1002.9
20210919090522 55 290 0.0 0.0 0.00 0.00 0.00 91 1003.0
20210919090022 55 290 0.0 0.0 0.00 0.00 0.00 91 1003.0
20210919085519 55 290 0.0 0.0 0.00 0.00 0.00 91 1003.1
20210919085018 55 290 0.0 0.0 0.00 0.00 0.00 90 1003.1
20210919084521 55 290 0.0 0.0 0.00 0.00 0.00 90 1003.1
20210919084020 55 290 0.0 0.0 0.00 0.00 0.00 90 1003.0
20210919083519 55 290 0.0 0.0 0.00 0.00 0.00 90 1003.2
20210919083019 55 290 0.0 0.0 0.00 0.00 0.00 90 1003.2
20210919082520 55 290 0.0 0.0 0.00 0.00 0.00 89 1003.1
20210919082019 55 290 0.0 0.0 0.00 0.00 0.00 89 1003.1
20210919081519 56 290 0.0 0.0 0.00 0.00 0.00 90 1003.1
20210919081020 56 290 0.0 0.0 0.00 0.00 0.00 90 1003.2
20210919080517 56 290 0.0 0.0 0.00 0.00 0.00 90 1003.2
20210919080017 56 290 0.0 0.0 0.00 0.00 0.00 89 1003.3
20210919075518 56 290 0.0 0.0 0.00 0.00 0.00 89 1003.3
20210919075016 56 290 0.0 0.0 0.00 0.00 0.00 89 1003.3
20210919074516 56 290 0.0 0.0 0.00 0.00 0.00 89 1003.5
20210919074020 56 290 0.0 0.0 0.00 0.00 0.00 89 1003.5
20210919073516 56 290 0.0 0.0 0.00 0.00 0.00 89 1003.6
20210919073016 56 291 0.0 0.0 0.00 0.00 0.00 89 1003.5
20210919072514 56 290 0.0 0.0 0.00 0.00 0.00 89 1003.6
20210919072012 57 290 0.0 0.0 0.00 0.00 0.00 89 1003.4
20210919071514 57 290 0.0 0.0 0.00 0.00 0.00 89 1003.5
20210919071013 57 290 0.0 0.0 0.00 0.00 0.00 89 1003.5
20210919070513 57 290 0.0 0.0 0.00 0.00 0.00 89 1003.5
20210919070012 57 290 0.0 0.0 0.00 0.00 0.00 89 1003.5
20210919065511 57 290 0.0 0.0 0.00 0.00 0.00 89 1003.5
20210919065011 57 290 0.0 0.0 0.00 0.00 0.00 89 1003.4
20210919064509 57 290 0.0 0.0 0.00 0.00 0.00 89 1003.4
20210919064009 57 290 0.0 0.0 0.00 0.00 0.00 89 1003.4
20210919063509 57 290 0.0 0.0 0.00 0.00 0.00 89 1003.5
20210919063010 57 290 0.0 0.0 0.00 0.00 0.00 88 1003.5
20210919062509 57 290 0.0 0.0 0.00 0.00 0.00 88 1003.5
20210919062010 57 290 0.0 0.0 0.00 0.00 0.00 88 1003.6
20210919061510 57 290 0.0 0.0 0.00 0.00 0.00 89 1003.5
20210919061009 58 290 0.0 0.0 0.00 0.00 0.00 89 1003.6
20210919060508 58 290 0.0 0.0 0.00 0.00 0.00 89 1003.7
20210919060009 58 290 0.0 0.0 0.00 0.00 0.00 88 1003.6
20210919055510 58 290 0.0 0.0 0.00 0.00 0.00 88 1003.6
20210919055011 58 290 0.0 0.0 0.00 0.00 0.00 87 1003.5
20210919054509 58 290 0.0 0.0 0.00 0.00 0.00 87 1003.6
20210919054010 59 290 0.0 0.0 0.00 0.00 0.00 87 1003.6
20210919053509 59 290 0.0 0.0 0.00 0.00 0.00 87 1003.6
20210919053010 59 290 0.0 0.0 0.00 0.00 0.00 87 1003.7
20210919052510 59 290 0.0 0.0 0.00 0.00 0.00 87 1003.7
20210919052009 59 290 0.0 0.0 0.00 0.00 0.00 87 1003.7
20210919051510 59 0 0.0 0.0 0.00 0.00 0.00 87 1003.6
20210919051011 59 0 0.0 0.0 0.00 0.00 0.00 85 1003.6